Appleton, MN

9:46 AM CDT on August 21, 2017 (GMT -0500)
Appleton Municipal

Weather History for KAQP - December, 2011

Change the Weather History Date:

Friday, December 30, 2011

  Actual Average Record
Temperature  
Mean Temperature 32 °F -  
Max Temperature 33 °F 20 °F 48 °F (2004)
Min Temperature 30 °F 5 °F -9 °F (2008)
Degree Days  
Heating Degree Days 34    
Moisture  
Dew Point 30 °F    
Average Humidity 98    
Maximum Humidity 100    
Minimum Humidity 93    
Precipitation  
Precipitation 0.08 in - - ()
Sea Level Pressure  
Sea Level Pressure 29.67 in    
Wind  
Wind Speed 6 mph (SE)    
Max Wind Speed 13 mph    
Max Gust Speed -    
Visibility 4 miles    
Events Fog , Snow    
Averages and records for this station are not official NWS values.
T = Trace of Precipitation, MM = Missing Value Source: NWS Daily Summary

Daily Weather History Graph

Daily Weather History Graph

Search for Another Location

Airport or City:

Trip Planner

Search our weather history database for the weather conditions in past years. The results will help you decide how hot, cold, wet, or windy it might be!

Date:

Astronomy

Dec. 30, 2011 Rise Set
Actual Time 8:02 AM CST 4:50 PM CST
Civil Twilight 7:29 AM CST 5:24 PM CST
Nautical Twilight 6:51 AM CST 6:01 PM CST
Astronomical Twilight 6:15 AM CST 6:37 PM CST
Moon 11:04 AM CST (12/30) 11:46 PM CST (12/30)
Length of Visible Light 9h 55m
Length of Day
8h 47m
Waxing Crescent, 36% of the Moon is Illuminated
Dec 30
Waxing Crescent
Jan 1
First Quarter
Jan 9
Full
Jan 16
Last Quarter
Jan 23
New

Hourly Weather History & Observations

Time (CST) Temp. Windchill Dew Point Humidity Pressure Visibility Wind Dir Wind Speed Gust Speed Precip Events Conditions
12:15 AM 30.2 °F 25.4 °F 30.2 °F 100% 29.57 in 2.0 mi SE 4.6 mph - N/A Snow Light Snow
12:34 AM 30.2 °F 24.3 °F 30.2 °F 100% 29.56 in 1.8 mi SE 5.8 mph - N/A Snow Light Snow
12:54 AM 30.2 °F 23.4 °F 30.2 °F 100% 29.55 in 2.5 mi SE 6.9 mph - N/A Snow Light Snow
1:15 AM 30.2 °F 21.9 °F 30.2 °F 100% 29.54 in 2.5 mi ESE 9.2 mph - N/A Snow Light Snow
1:35 AM 30.2 °F 25.4 °F 30.2 °F 100% 29.56 in 2.5 mi SE 4.6 mph - N/A Snow Light Snow
1:54 AM 30.2 °F 25.4 °F 30.2 °F 100% 29.56 in 3.0 mi SE 4.6 mph - N/A Snow Light Snow
2:14 AM 32.0 °F 26.4 °F 30.2 °F 93% 29.56 in 3.0 mi SE 5.8 mph - N/A Snow Light Snow
2:35 AM 32.0 °F 24.2 °F 30.2 °F 93% 29.56 in 4.0 mi SE 9.2 mph - N/A Snow Light Snow
2:54 AM 32.0 °F 23.6 °F 30.2 °F 93% 29.56 in 4.0 mi SE 10.4 mph - N/A   Overcast
3:15 AM 32.0 °F 24.2 °F 30.2 °F 93% 29.56 in 4.0 mi SE 9.2 mph - N/A   Overcast
3:54 AM 32.0 °F 24.2 °F 30.2 °F 93% 29.56 in 5.0 mi SE 9.2 mph - N/A   Overcast
4:15 AM 30.2 °F 21.9 °F 30.2 °F 100% 29.55 in 5.0 mi SE 9.2 mph - N/A   Overcast
4:34 AM 30.2 °F 21.3 °F 30.2 °F 100% 29.55 in 7.0 mi SE 10.4 mph - N/A   Overcast
4:55 AM 30.2 °F 23.4 °F 30.2 °F 100% 29.56 in 7.0 mi SE 6.9 mph - N/A   Overcast
5:15 AM 30.2 °F 23.4 °F 30.2 °F 100% 29.56 in 7.0 mi SE 6.9 mph - N/A   Overcast
5:35 AM 30.2 °F 22.6 °F 30.2 °F 100% 29.57 in 7.0 mi SE 8.1 mph - N/A   Overcast
5:55 AM 30.2 °F 25.4 °F 30.2 °F 100% 29.58 in 7.0 mi SE 4.6 mph - N/A   Overcast
6:14 AM 30.2 °F 25.4 °F 30.2 °F 100% 29.58 in 5.0 mi SE 4.6 mph - N/A   Overcast
6:34 AM 30.2 °F 25.4 °F 30.2 °F 100% 29.58 in 5.0 mi SE 4.6 mph - N/A   Overcast
7:14 AM 30.2 °F 25.4 °F 30.2 °F 100% 29.60 in 5.0 mi SE 4.6 mph - N/A   Overcast
7:35 AM 30.2 °F 26.7 °F 30.2 °F 100% 29.61 in 5.0 mi SE 3.5 mph - N/A   Overcast
7:54 AM 30.2 °F 26.7 °F 30.2 °F 100% 29.61 in 5.0 mi East 3.5 mph - N/A   Overcast
8:14 AM 30.2 °F 24.3 °F 30.2 °F 100% 29.62 in 4.0 mi ESE 5.8 mph - N/A   Overcast
8:34 AM 30.2 °F 25.4 °F 30.2 °F 100% 29.63 in 3.0 mi East 4.6 mph - N/A   Overcast
9:15 AM 30.2 °F 25.4 °F 30.2 °F 100% 29.65 in 3.0 mi ESE 4.6 mph - N/A   Overcast
9:35 AM 30.2 °F 24.3 °F 30.2 °F 100% 29.66 in 2.5 mi SE 5.8 mph - N/A   Overcast
9:55 AM 30.2 °F - 30.2 °F 100% 29.68 in 2.5 mi Calm Calm - N/A   Overcast
10:14 AM 30.2 °F 26.7 °F 30.2 °F 100% 29.68 in 2.5 mi ESE 3.5 mph - N/A   Overcast
10:35 AM 30.2 °F - 30.2 °F 100% 29.68 in 2.5 mi Calm Calm - N/A   Overcast
11:14 AM 30.2 °F 26.7 °F 30.2 °F 100% 29.69 in 2.0 mi SE 3.5 mph - N/A   Overcast
11:34 AM 30.2 °F - 30.2 °F 100% 29.69 in 2.0 mi Calm Calm - 0.01 in   Overcast
11:54 AM 30.2 °F - 30.2 °F 100% 29.70 in 2.0 mi Calm Calm - 0.01 in   Overcast
12:35 PM 30.2 °F - 30.2 °F 100% 29.69 in 1.5 mi Calm Calm - 0.01 in   Overcast
1:14 PM 30.2 °F - 30.2 °F 100% 29.70 in 1.2 mi Calm Calm - N/A   Overcast
1:35 PM 30.2 °F - 30.2 °F 100% 29.70 in 0.5 mi Calm Calm - 0.02 in Fog Light Freezing Fog
1:55 PM 30.2 °F - 30.2 °F 100% 29.71 in 0.2 mi Calm Calm - 0.04 in Fog Light Freezing Fog
2:14 PM 30.2 °F - 30.2 °F 100% 29.72 in 0.2 mi Calm Calm - 0.01 in Fog Light Freezing Fog
2:34 PM 32.0 °F - 32.0 °F 100% 29.72 in 0.2 mi Calm Calm - 0.01 in Fog Fog
2:55 PM 32.0 °F 28.7 °F 32.0 °F 100% 29.73 in 0.2 mi WNW 3.5 mph - 0.01 in Fog Fog
3:15 PM 33.8 °F 25.3 °F 33.8 °F 100% 29.74 in 0.8 mi NW 11.5 mph - 0.01 in   Overcast
3:34 PM 32.0 °F 23.0 °F 32.0 °F 100% 29.75 in 1.2 mi NW 11.5 mph - 0.01 in   Overcast
3:55 PM 32.0 °F 22.5 °F 32.0 °F 100% 29.76 in 2.5 mi NW 12.7 mph - 0.01 in   Overcast
4:15 PM 30.2 °F 21.9 °F 30.2 °F 100% 29.76 in 3.0 mi NW 9.2 mph - N/A   Overcast
4:35 PM 30.2 °F 21.3 °F 30.2 °F 100% 29.77 in 2.5 mi NW 10.4 mph - N/A   Overcast
4:55 PM 30.2 °F 21.9 °F 30.2 °F 100% 29.77 in 5.0 mi NW 9.2 mph - N/A   Overcast
5:14 PM 30.2 °F 21.9 °F 30.2 °F 100% 29.77 in 5.0 mi NW 9.2 mph - N/A   Overcast
5:35 PM 30.2 °F 22.6 °F 30.2 °F 100% 29.77 in 5.0 mi NW 8.1 mph - N/A   Overcast
5:55 PM 30.2 °F 22.6 °F 30.2 °F 100% 29.78 in 7.0 mi NW 8.1 mph - N/A   Overcast
6:15 PM 30.2 °F 21.9 °F 30.2 °F 100% 29.80 in 7.0 mi WNW 9.2 mph - N/A   Overcast
6:35 PM 30.2 °F 21.9 °F 28.4 °F 93% 29.81 in 7.0 mi West 9.2 mph - N/A   Overcast
6:55 PM 30.2 °F 22.6 °F 28.4 °F 93% 29.82 in 7.0 mi West 8.1 mph - N/A   Overcast
7:14 PM 30.2 °F 22.6 °F 28.4 °F 93% 29.81 in 5.0 mi West 8.1 mph - N/A   Overcast
7:35 PM 30.2 °F 26.7 °F 28.4 °F 93% 29.81 in 5.0 mi WNW 3.5 mph - N/A   Overcast
7:55 PM 30.2 °F 26.7 °F 28.4 °F 93% 29.81 in 7.0 mi WNW 3.5 mph - N/A   Overcast
8:15 PM 30.2 °F - 28.4 °F 93% 29.79 in 7.0 mi Calm Calm - N/A   Overcast
8:35 PM 30.2 °F - 28.4 °F 93% 29.78 in 7.0 mi Calm Calm - N/A   Overcast
8:55 PM 30.2 °F - 28.4 °F 93% 29.79 in 7.0 mi Calm Calm - N/A   Overcast
9:15 PM 30.2 °F - 28.4 °F 93% 29.79 in 7.0 mi Calm Calm - N/A   Overcast
9:35 PM 30.2 °F - 28.4 °F 93% 29.79 in 7.0 mi Calm Calm - N/A   Overcast
9:54 PM 30.2 °F - 28.4 °F 93% 29.78 in 7.0 mi Calm Calm - N/A   Overcast
10:14 PM 28.4 °F - 28.4 °F 100% 29.78 in 7.0 mi Calm Calm - N/A   Overcast
10:55 PM 30.2 °F 26.7 °F 28.4 °F 93% 29.78 in 7.0 mi South 3.5 mph - N/A   Overcast
11:15 PM 30.2 °F 26.7 °F 28.4 °F 93% 29.77 in 7.0 mi SSE 3.5 mph - N/A   Overcast
11:35 PM 30.2 °F 26.7 °F 28.4 °F 93% 29.76 in 7.0 mi SSE 3.5 mph - N/A   Overcast
11:54 PM 30.2 °F 24.3 °F 28.4 °F 93% 29.76 in 7.0 mi South 5.8 mph - N/A   Overcast